Regional Weather Roundup
Issued by NWS

Home | Current Version | Previous Version | Graphics & Text | Print | Product List | Glossary On
Versions: 1 2 3 4 5 6 7 8 9 10 11 12 13 14 15 16 17 18 19 20 21 22 23 24 25 26 27 28 29 30 31 32 33 34 35 36 37 38 39 40 41 42 43 44 45 46 47 48 49 50
000
ASUS45 KCYS 241610
RWRWY

WYOMING REGIONAL WEATHER ROUNDUP
NATIONAL WEATHER SERVICE CHEYENNE WY
1000 AM MDT SUN MAY 24 2015

NOTE:  "FAIR" INDICATES FEW OR NO CLOUDS BELOW 12,000 FEET
WITH NO SIGNIFICANT WEATHER AND/OR OBSTRUCTIONS TO VISIBILITY.

WYZ001-241700-
YELLOWSTONE NATIONAL PARK

CITY           SKY/WX    TMP DP  RH WIND       PRES   REMARKS
LK YELLOWSTONE   N/A     43  30  60 VRB5      30.06S
W YELLOWSTONE  NOT AVBL

$$
WYZ002>013-054>058-071-098>099-241700-
NORTHERN WYOMING

CITY           SKY/WX    TMP DP  RH WIND       PRES   REMARKS
JACKSON        SUNNY     52  37  58 N12       29.97F
CODY           CLOUDY    46  43  87 N13       30.02F
GREYBULL       LGT RAIN  53  47  79 NW22G29   29.92F
WORLAND        LGT RAIN  50  46  86 N10       29.94S
SHERIDAN       RAIN      50  48  93 NW9       29.99F FOG
BUFFALO        RAIN      47  46  97 N16G26    29.97F FOG
GILLETTE       CLOUDY    51  49  92 NE15      29.92F FOG
HULETT         CLOUDY    52  50  93 NE16      29.96S FOG
NEWCASTLE      DRIZZLE   54  48  82 SE5       29.91S

$$
WYZ014>020-022>026-101>103-241700-
CENTRAL WYOMING

CITY           SKY/WX    TMP DP  RH WIND       PRES   REMARKS
BIG PINEY      PTSUNNY   46  40  79 S3        29.96F
PINEDALE       PTSUNNY   45  37  76 NW10      29.96F
DUBOIS         DRIZZLE   41  36  81 CALM      29.99S
LANDER         LGT RAIN  44  41  89 NW8       29.97S FOG
RIVERTON       RAIN      45  42  89 NW8       29.97S FOG
CASPER         CLOUDY    49  44  83 NE3       29.90F
DOUGLAS        CLOUDY    49  48  97 W6        29.89F

$$
WYZ021-027>030-104>119-241700-
SOUTHERN WYOMING

CITY           SKY/WX    TMP DP  RH WIND       PRES   REMARKS
EVANSTON       CLOUDY    45  39  79 SW7       30.00F
KEMMERER       PTSUNNY   46  36  66 W13G20    29.97F
FORT BRIDGER   CLOUDY    50  45  81 NW13      30.01F
ROCK SPRINGS   SNOW      32  32 100 CALM      29.98S VSB 1/2
DIXON          LGT SNOW  34  33  96 CALM      30.00R
RAWLINS        LGT RAIN  39  36  89 S7        29.94S WCI  34
SARATOGA       DRIZZLE   37  37 100 NW5       29.95S WCI  34
LARAMIE        FAIR      48  34  58 SW8       29.92S
CHEYENNE       FAIR      54  39  57 NW5       29.91S
TORRINGTON     CLOUDY    56  48  74 VRB3      29.87S
PINE BLUFFS    FAIR      54  45  71 N6        29.91R

$$


USA.gov is the U.S. government's official web portal to all federal, state and local government web resources and services.